Showing default

HULIANWANG DIGUI-13, 62973

Orbit data source: Space-Track

HULIANWANG DIGUI-13, 62973 is a payload satellite owned by Zhongguo Xingwang (CN) in LEO that was launched on Tue, 11 Feb 2025 UTC via a CHANG ZHENG 8A launch vehicle from the Wenchang Satellite Launch Center (WSC). Payload-class satellites include a variety of spacecraft equipped with specific instruments for various scientific and technological missions. These include communications satellites like Starlink; space stations such as the ISS; scientific satellites like the Hubble; Earth observation satellites from companies like Planet Labs, Umbra, and HawkEye 360; GPS; miniature CubeSats for education and research; and military/defense satellites.

Loading next visibility...
Identifier
62973, 2025-030C
Orbit
LEO
Country
Flag of CNCN / PRC
Related business
Manufacturer
CAST
Mission
Operational Civil Communications
Bus & Motor
GUOWANG C, Unknown motor
Mass
~800 kg wet, ~800 kg dry
Launch date (UTC)
2025-02-11 (7 months ago)
Launch vehicle
CHANG ZHENG 8A
Launch site
Wenchang Satellite Launch Center (WSC)
Object type
Payload
Rocket body
Debris
Shape & HBR
Box + 2 Pan, 5.0 m
Radar Cross Section
5.935 m², Large (>1 m²)

Expand to show TLE details & history
Last TLE update: 3 hours ago

TLE from 3 hours ago
0 HULIANWANG DIGUI-13
1 62973U 25030C   25243.63647248 -.00000061  00000-0  13526-3 0  9991
2 62973  50.0008 194.3396 0001019 347.4052  12.6794 13.29328620 27344
Epoch: 2025-08-31T15:16Z
TLE epoch observation values (Epoch: 2025-08-31T15:16:31.222Z)
Latitude
-0.00005°
Longitude
-14.8441°
Altitude
1,149.054 km
Speed
7.28 km/s
True Right ascension
12h 57m 21s
True Declination
0° 00' 00"
Sunlit
Object was in daylight at epoch
Visualization orbit readout
Latitude
Unknown
Longitude
Unknown
Altitude
Unknown
Speed
Unknown
Apparent Right ascension
Unknown
Apparent Declination
Unknown
Sunlit
N/A
Visualization observer readout
Local Sidereal Time
10:25:07
Azimuth
Unknown
Elevation
Unknown
Doppler factor
Unknown
Orbital elements
Apogee altitude
1,150.769 km
Perigee altitude
1,149.235 km
Semi-major axis
7,528.139 km
Eccentricity
0.0001
Inclination
50.0008°
RAAN
194.3396°
Arg. of periapsis
347.4052°
True anomaly
12.68196°
Mean anomaly
12.6794°
Eccentric anomaly
12.68068°
Mean motion
3.32286 °/min
Orbital period
108.34 mins
BSTAR
0.00013526
Loading maneuver chart data...
Computing Atmospheric mass density...
Loading historical data...
Loading historical data...
Loading historical data...
Loading historical data...
Loading historical data...
Loading historical data...
Loading historical data...

Documentation

Showing up to 5 results
|